Total_Precipitation_Accumulation
0.07 0.07 0.07 0.05 0.05 0.05 0.06 0.07 0.07 0.08 0.10 0.14 0.17 0.18 0.23 0.24 0.21 0.20 0.17 0.13 0.11 0.15 0.25 0.36 0.51 0.72 0.94 1.03 1.07 1.00 0.94 0.87 0.77 0.70 0.69 0.72 0.83 0.93 1.00 0.96 1.01 1.05 1.03
0.04 0.04 0.04 0.04 0.03 0.03 0.03 0.03 0.04 0.05 0.06 0.09 0.09 0.12 0.16 0.16 0.15 0.18 0.19 0.19 0.16 0.15 0.23 0.28 0.36 0.50 0.78 1.01 1.12 1.09 1.03 1.01 0.98 0.92 0.81 0.79 0.83 0.91 1.01 1.07 0.93 0.88 0.86
0.02 0.02 0.02 0.02 0.02 0.02 0.03 0.03 0.03 0.04 0.05 0.06 0.08 0.10 0.11 0.12 0.13 0.16 0.20 0.22 0.22 0.20 0.22 0.31 0.35 0.42 0.60 0.85 1.09 1.27 1.15 1.11 1.15 1.14 1.00 0.90 0.85 0.91 0.95 1.08 1.11 1.02 0.91
0.03 0.03 0.04 0.04 0.02 0.03 0.06 0.07 0.06 0.07 0.06 0.08 0.10 0.13 0.13 0.14 0.13 0.16 0.22 0.22 0.24 0.23 0.22 0.27 0.37 0.43 0.54 0.68 0.90 1.24 1.36 1.32 1.31 1.30 1.23 1.12 0.96 0.97 1.00 1.06 1.15 1.18 1.12
0.04 0.04 0.05 0.06 0.07 0.08 0.10 0.12 0.11 0.13 0.12 0.11 0.12 0.16 0.18 0.21 0.22 0.22 0.27 0.28 0.27 0.25 0.25 0.26 0.32 0.35 0.44 0.59 0.79 1.06 1.36 1.50 1.49 1.49 1.44 1.36 1.22 1.06 1.07 1.12 1.18 1.29 1.32
0.03 0.04 0.04 0.05 0.08 0.12 0.15 0.18 0.15 0.15 0.16 0.17 0.22 0.24 0.28 0.30 0.27 0.22 0.26 0.32 0.32 0.29 0.32 0.31 0.30 0.29 0.31 0.40 0.60 0.85 1.15 1.43 1.56 1.61 1.65 1.63 1.51 1.35 1.18 1.15 1.18 1.30 1.45
0.03 0.03 0.03 0.04 0.05 0.07 0.08 0.10 0.12 0.11 0.11 0.13 0.18 0.19 0.20 0.23 0.22 0.19 0.22 0.30 0.38 0.42 0.43 0.44 0.42 0.37 0.34 0.34 0.35 0.50 0.77 1.13 1.45 1.61 1.71 1.75 1.73 1.63 1.47 1.32 1.26 1.31 1.45
0.03 0.03 0.03 0.03 0.03 0.03 0.03 0.03 0.04 0.07 0.06 0.07 0.14 0.18 0.16 0.14 0.13 0.13 0.16 0.23 0.32 0.41 0.46 0.49 0.51 0.51 0.46 0.41 0.30 0.29 0.41 0.70 1.10 1.51 1.74 1.86 1.98 1.97 1.82 1.62 1.48 1.47 1.53
0.03 0.02 0.02 0.02 0.02 0.02 0.03 0.03 0.04 0.06 0.06 0.05 0.08 0.22 0.30 0.22 0.14 0.07 0.09 0.13 0.18 0.22 0.29 0.36 0.44 0.50 0.52 0.51 0.43 0.33 0.30 0.46 0.74 1.14 1.60 1.91 2.16 2.37 2.32 2.05 1.83 1.74 1.70
0.02 0.02 0.02 0.02 0.03 0.03 0.03 0.03 0.04 0.05 0.08 0.09 0.08 0.11 0.19 0.23 0.29 0.16 0.04 0.04 0.05 0.08 0.11 0.17 0.24 0.32 0.41 0.46 0.50 0.51 0.46 0.43 0.64 0.87 1.24 1.72 2.20 2.62 2.89 2.68 2.28 1.98 1.87
0.02 0.02 0.02 0.02 0.03 0.03 0.04 0.04 0.04 0.05 0.08 0.12 0.14 0.14 0.13 0.12 0.18 0.28 0.14 0.02 0.02 0.03 0.04 0.08 0.12 0.18 0.26 0.35 0.43 0.51 0.58 0.57 0.70 0.86 1.02 1.37 1.88 2.54 3.04 3.09 2.77 2.38 2.08
0.03 0.03 0.03 0.03 0.03 0.04 0.04 0.05 0.06 0.07 0.09 0.12 0.15 0.17 0.21 0.24 0.21 0.27 0.25 0.09 0.03 0.02 0.03 0.04 0.07 0.13 0.21 0.30 0.39 0.53 0.61 0.65 0.73 0.86 0.88 1.06 1.41 1.97 2.70 3.13 3.08 2.80 2.49
0.03 0.03 0.04 0.04 0.05 0.06 0.06 0.08 0.10 0.12 0.13 0.16 0.17 0.18 0.20 0.22 0.23 0.30 0.35 0.20 0.09 0.03 0.02 0.04 0.06 0.11 0.19 0.26 0.32 0.43 0.49 0.54 0.61 0.72 0.75 0.75 0.88 1.30 2.03 2.82 3.25 3.19 2.97
0.03 0.03 0.04 0.06 0.07 0.07 0.09 0.11 0.13 0.16 0.18 0.20 0.20 0.22 0.24 0.22 0.25 0.31 0.38 0.41 0.30 0.10 0.03 0.03 0.04 0.09 0.15 0.19 0.26 0.34 0.35 0.40 0.45 0.54 0.64 0.66 0.66 0.77 1.20 2.00 2.84 3.37 3.35
0.03 0.04 0.06 0.08 0.11 0.12 0.13 0.15 0.18 0.19 0.21 0.23 0.25 0.27 0.30 0.29 0.28 0.28 0.32 0.44 0.61 0.45 0.12 0.03 0.05 0.08 0.12 0.16 0.22 0.27 0.27 0.32 0.38 0.43 0.51 0.59 0.62 0.65 0.80 1.14 1.86 2.73 3.38
0.04 0.05 0.08 0.10 0.13 0.16 0.19 0.22 0.23 0.24 0.25 0.26 0.29 0.33 0.35 0.35 0.33 0.33 0.34 0.36 0.49 0.61 0.39 0.08 0.07 0.10 0.14 0.16 0.22 0.26 0.25 0.31 0.35 0.39 0.41 0.45 0.54 0.63 0.72 0.87 1.17 1.85 2.63
0.07 0.08 0.10 0.11 0.13 0.17 0.22 0.25 0.27 0.30 0.33 0.33 0.35 0.39 0.38 0.38 0.42 0.41 0.41 0.42 0.42 0.52 0.53 0.16 0.07 0.10 0.18 0.25 0.24 0.24 0.24 0.25 0.28 0.35 0.39 0.40 0.45 0.53 0.63 0.73 0.89 1.26 1.93
0.12 0.12 0.14 0.15 0.16 0.19 0.24 0.28 0.31 0.33 0.39 0.44 0.46 0.46 0.45 0.45 0.46 0.48 0.53 0.52 0.48 0.47 0.54 0.36 0.13 0.11 0.17 0.25 0.28 0.27 0.25 0.23 0.24 0.30 0.35 0.41 0.44 0.49 0.57 0.66 0.77 0.91 1.29
0.23 0.22 0.23 0.26 0.27 0.29 0.35 0.36 0.38 0.41 0.44 0.48 0.52 0.56 0.57 0.57 0.57 0.56 0.60 0.62 0.58 0.51 0.52 0.51 0.29 0.18 0.20 0.26 0.32 0.32 0.30 0.29 0.27 0.30 0.32 0.38 0.45 0.50 0.53 0.59 0.68 0.77 0.88
0.36 0.37 0.38 0.40 0.41 0.45 0.64 0.69 0.57 0.52 0.51 0.52 0.56 0.60 0.65 0.70 0.72 0.73 0.78 0.77 0.74 0.70 0.62 0.58 0.46 0.33 0.31 0.32 0.39 0.39 0.35 0.33 0.36 0.36 0.35 0.35 0.40 0.47 0.50 0.50 0.50 0.56 0.71
0.48 0.49 0.49 0.48 0.49 0.61 0.96 1.11 0.86 0.71 0.63 0.60 0.58 0.62 0.66 0.76 0.92 1.07 1.18 1.11 0.96 0.94 0.86 0.80 0.67 0.52 0.44 0.46 0.53 0.49 0.50 0.41 0.42 0.46 0.43 0.36 0.33 0.33 0.37 0.45 0.51 0.54 0.60
0.55 0.53 0.52 0.49 0.46 0.58 0.94 1.12 0.89 0.70 0.56 0.54 0.54 0.52 0.54 0.61 0.72 0.85 1.03 1.04 1.00 1.12 1.17 1.08 0.94 0.80 0.60 0.54 0.62 0.71 0.75 0.72 0.61 0.50 0.50 0.47 0.42 0.41 0.39 0.39 0.49 0.54 0.62
0.45 0.42 0.40 0.37 0.32 0.40 0.78 0.94 0.76 0.49 0.35 0.38 0.39 0.40 0.40 0.44 0.52 0.52 0.63 0.69 0.75 0.85 1.02 1.14 1.17 0.96 0.78 0.69 0.82 0.95 0.96 0.94 0.74 0.62 0.70 0.76 0.63 0.56 0.51 0.51 0.57 0.55 0.62
0.31 0.29 0.25 0.23 0.21 0.27 0.65 0.88 0.69 0.33 0.25 0.29 0.33 0.36 0.37 0.39 0.45 0.57 0.62 0.57 0.50 0.52 0.70 0.91 1.10 1.02 0.92 0.94 1.12 1.31 1.36 1.33 1.09 0.85 0.83 0.98 0.85 0.77 0.70 0.64 0.61 0.55 0.56
0.22 0.22 0.18 0.15 0.14 0.17 0.46 0.84 0.72 0.35 0.31 0.30 0.33 0.38 0.41 0.37 0.45 0.61 0.67 0.60 0.46 0.43 0.48 0.69 0.92 1.04 1.10 1.22 1.42 1.66 1.74 1.77 1.62 1.29 1.08 1.10 1.01 0.92 0.89 0.85 0.76 0.67 0.60
0.15 0.15 0.14 0.13 0.11 0.11 0.28 0.69 0.80 0.42 0.33 0.30 0.29 0.35 0.50 0.51 0.52 0.57 0.60 0.62 0.59 0.47 0.38 0.39 0.45 0.56 0.69 0.82 1.09 1.39 1.55 1.68 1.68 1.62 1.34 1.24 1.22 1.16 1.23 1.02 0.82 0.68 0.60